Погода в Могоче

Погода в Могоче : погода сейчас, прогноз погоды и архив. Всё, что Вы хотите узнать о погоде в Могоче!

Хотите узнать прогноз погоды в Могоче? Тогда Вам сюда: Погода в Могоче

Поиск расширенной информации на нашем сайте:

Полезная информация: предлагаются помещения продажа офиса в БЦ Eurasia Tower в деловом центре Москва Сити

Другие новости

Новости СМИ2

Главная страница сайта

Новости сайта

02.10.2013

Напоминаем, что на нашем новом сайте вы можете получить высокодетализированные прогнозы погоды по пунктам России, СНГ и мира (включающие важные для авиации метеовеличины, такие как направление и скорость ветра, видимость, явления погоды, количество и форма облачности, нижняя и верхняя граница облачности), а также ознакомиться с разнообразными материалами по авиационной метеорологии и подборкой полезных ссылок на эту тему.

Сайт Метеоцентр.Азия посвящён разработке технологий оптимизации авиаметеорологического обслуживания, включая проектирование и перспективное создание нескольких автоматизированных авиаметеорологических систем:
- система выпуска высокодетальных прогностических карт явлений погоды для нижнего воздушного пространства по России и ближнему зарубежью;
- система верификации прогнозов TAF (выпускаемых синоптиками официальных АМСГ РФ и ближнего зарубежья) и AUTOTAF (выпускаемых сайтом Метеоцентр.Азия) - выявление ошибок, онлайн-сопоставление с фактической погодой METAR, автоматическое внесение коррективов в прогнозы при резком отклонении фактической погоды от прогноза, подсчёт оправдываемости прогнозов по элементам и в целом;
- система обработки, анализа и отображения авиаметеорологической информации для применения провайдерами метеорологической информации.

Рекомендуем: проточка тормозных дисков

Погода в Могоче - сегодня

Время (UTC), дата Ветер
(°,м/с) 
Видим.   Явления Облачность Т
(°С)
Тd
(°С)
f(%) Тe
(°С)
Pmin
(гПа)
dP
(гПа)
Po
(мм)
O2
(г/м3)
Тmin Tmax R s Состояние
почвы
09 22.03.17 360 (С) 3{10}  20000 м    3/1 1000 м средняя 
[Cu hum|Ac lent]
+1.6 -15.5 27 1024.3  0.1  711  286           
12 22.03.17 310 (СЗ) 20000 м    ясно 
-4.1 -16 39 -5  1026.9  0.9  712  292    +2.6       
15 22.03.17 320 (СЗ) 20000 м    ясно 
-9.9 -16.5 59 -10  1029.9  1.1  713  299           
18 22.03.17 330 (СЗ) 20000 м    ясно 
-15.5 -18.9 75 -16  1033  1.2  714  306           
21 22.03.17 тихо ()   20000 м    ясно 
-18.2 -21.1 78 -18  1034.9  0.9  714  310           
00 23.03.17 360 (С) 20000 м    ясно 
-12.6 -17.1 69 -13  1033.6  0.5  715  303  -19.4      мокрый или
старый снег
10-40% 
03 23.03.17 150 (ЮВ) 20000 м    ясно 
+0.7 -12.7 36 +1  1028.3  -1.3  714  288           
06 23.03.17 140 (ЮВ) 20000 м    ясно 
+3.4 -13.9 27 +2  1024.6  -2.7  712  284           
09 23.03.17 290 (З) 20000 м    3/3 1000 м 
[Cu hum]
+3.8 -16.7 21 +5  1023.2  -1.2  711  284           
12 23.03.17 тихо ()   20000 м    1/1 1000 м 
[Sc diur, vesp]
-5.9 -14.6 50 -6  1026.7  0.7  711  294    +4.8       
15 23.03.17 тихо ()   20000 м    ясно 
-11.8 -16.2 70 -12  1029.5  0.9  712  301           
18 23.03.17 тихо ()   20000 м    ясно 
-15.5 -18.8 76 -16  1030.6  -0.1  712  306           
21 23.03.17 тихо ()   20000 м    ясно 
-17.5 -20.3 79 -18  1031.5  0.3  712  308           
00 24.03.17 360 (С) 20000 м    ясно 
-12.3 -16.6 70 -12  1030.6  0.7  713  302  -18.6      мокрый или
старый снег
10-40% 
03 24.03.17 150 (ЮВ) 20000 м    6/1 1000 м верхняя 
[Cu hum|Ci fib]
+1.3 -14 31 +2  1025.1  -1.3  712  287           
06 24.03.17 340 (С) 20000 м    9/8 1000 м кучево-дожд., верхняя 
[Cb calv|Cs]
+4.2 -15.8 22 +3  1021.6  -2.5  710  283           
09 24.03.17 320 (СЗ) 20000 м    6/5 1000 м кучево-дожд., верхняя 
[Cb calv|Ci fib]
+3.6 -15.5 23 +3  1020.7  -0.9  709  283           
12 24.03.17 310 (СЗ) 2{10}  20000 м    3/0 верхняя 
[Ci fib]
-3.7 -15.5 39 -5  1023.9  710  291    +4.7       
15 24.03.17 тихо ()   20000 м    ясно 
-10.8 -16.2 64 -11  1026.4  0.3  710  299           
18 24.03.17 360 (С) 20000 м    ясно 
-14.1 -17.5 75 -14  1027  -0.4  710  303           
21 24.03.17 тихо ()   20000 м    6/0 верхняя 
[Cs]
-15.6 -18.8 76 -16  1027.4  0.1  710  305           
00 25.03.17 360 (С) 20000 м    10/0 средняя 
[As trans]
-10.5 -15.3 68 -10  1026.2  0.4  710  299  -16.2      мокрый или
старый снег
10-40% 
03 25.03.17 070 (В) 20000 м    10/3 1000 м верхняя 
[Cu hum|Cs]
+2.2 -13.6 30 +3  1021.9  -0.5  710  285           
06 25.03.17 020 (С) 20000 м    8/5 600 м кучево-дожд., верхняя 
[Cb calv|Ci fib]
+4.3 -12.1 29 +2  1019.8  -1.4  709  282           
09 25.03.17 060 (СВ) 2{10}  20000 м    6/4 600 м кучево-дожд., верхняя 
[Cb calv|Ci fib]
+2.5 -10.3 38 +2  1020.7  0.3  709  284           
Время (UTC), дата Ветер
(°,м/с) 
Видим.   Явления Облачность Т
(°С)
Тd
(°С)
f(%) Тe
(°С)
Pmin
(гПа)
dP
(гПа)
Po
(мм)
O2
(г/м3)
Тmin Tmax R s Состояние
почвы

Для получения пояснительной информации подведите курсор к названию столбца.

ПОГОДА в Могоче - архив

Всё, что Вы хотите узнать о погоде в Могоче - удобно и подробно!

Выберите нужную дату (начиная с 1 января 2015* года) и нажмите кнопку "Найти".
Будут отображены архивные сводки погоды по пункту Могоча, начиная с указанной даты.


Отображать данные в формате CSV (для использования в таблицах Excel)


Внимание! Наш архив погоды предназначен исключительно для личного некоммерческого использования в познавательных целях. Если Вам необходимы официальные справки о состоянии погоды (для производственных, юридических, коммерческих и т.п. целей), обращайтесь в органы Росгидромета.

*Примечание: данная дата относится к архиву по метеостанциям СССР (Россия, СНГ, Балтия).
Архив по метеостанциям Зарубежной Европы и Азии (кроме Китая) хранится 10 дней, по другим регионам земного шара (Китай, Африка, Америка, Австралия, Океания) - 1 день.

Могоча - район местоположения метеостанции


Название, широта, долгота, высота метеостанции:
Могоча 53.8°ш. 119.7°д. 625 м над ур. моря [Российская Федерация]

Дополнительная информация

В oтличие oт бoльшинства пoгoдных сайтoв мы публикуем пoдрoбную метеoинфoрмацию в детальнoм прoфессиoнальнoм фoрмате.

Характеристики температуры и влажнoсти вoздуха измеряются на высoте 2 м в тени вдали oт зданий и деревьев.
Скoрoсть ветра измеряется на высoте 10 м (на урoвне рoста челoвека скoрoсть ветра ниже в 1.5-2 раза). Если метеoстанция нахoдится в гoрoде или в лесу, тo скoрoсть ветра занижена на 2-4 м/с пo сравнению с oткрытым местoм. Скoрoсть ветра над акватoриями крупных рек и oзёр, а также на вершинах хoлмoв на 2-5 м/с выше, чем в oбычных услoвиях.
Атмoсфернoе давление в разных тoчках местнoсти мoжет значительнo oтличаться oт давления на метеoстанции, в зависимoсти oт услoвий рельефа (при пoдъёме на 10 м давление пoнижается примернo на 1 мм рт.ст.).